Location: Ravencliff
(37.6982°N, 81.4812°W)
Time: 19:57:06
(UTC+00:00)

ACS3 Solar Sail - Pass Details

Date: 25 April 2026
Orbit: 894 x 947 km, 97.2° (Epoch: 12 May)

Event Time Altitude Azimuth Distance (km) Brightness Sun altitude
Rises 06:54:05 0° 6° (N) 3,560 5.6 -34.9°
Reaches altitude 10° 06:56:32 10° 3° (N) 2,621 4.7 -34.6°
Enters shadow 07:00:28 41° 340° (NNW) 1,317 2.6 -34.3°
